owner,sensor,date,latitude,longitude,vertical_datum,mass_concentration_of_oxygen_in_sea_water,qcFlag 
SCCF RECON,ioos:station:SCCF:13:1,2015-03-01T00:00:00Z,26.5255,-82.0032,2.551,7.22,1111122 
SCCF RECON,ioos:station:SCCF:13:1,2015-03-01T01:00:00Z,26.5255,-82.0032,2.58,7.58,1111122 
SCCF RECON,ioos:station:SCCF:13:1,2015-03-01T02:00:00Z,26.5255,-82.0032,2.59,7.46,1111122 
SCCF RECON,ioos:station:SCCF:13:1,2015-03-01T03:00:00Z,26.5255,-82.0032,2.6,7.18,1111122 
SCCF RECON,ioos:station:SCCF:13:1,2015-03-01T04:00:00Z,26.5255,-82.0032,2.6,7.02,1111122 
SCCF RECON,ioos:station:SCCF:13:1,2015-03-01T05:00:00Z,26.5255,-82.0032,2.53,7.09,1111122 
SCCF RECON,ioos:station:SCCF:13:1,2015-03-01T06:00:00Z,26.5255,-82.0032,2.44,6.84,1111122 
SCCF RECON,ioos:station:SCCF:13:1,2015-03-01T07:00:00Z,26.5255,-82.0032,2.33,7.26,1111122 
SCCF RECON,ioos:station:SCCF:13:1,2015-03-01T08:00:00Z,26.5255,-82.0032,2.25,7.43,1111122 
SCCF RECON,ioos:station:SCCF:13:1,2015-03-01T09:00:00Z,26.5255,-82.0032,2.17,7.44,1111122 
SCCF RECON,ioos:station:SCCF:13:1,2015-03-01T10:00:00Z,26.5255,-82.0032,2.12,7.4,1111122 
SCCF RECON,ioos:station:SCCF:13:1,2015-03-01T11:00:00Z,26.5255,-82.0032,2.14,7.36,1111122 
SCCF RECON,ioos:station:SCCF:13:1,2015-03-01T12:00:00Z,26.5255,-82.0032,2.24,7.34,1111122 
SCCF RECON,ioos:station:SCCF:13:1,2015-03-01T13:00:00Z,26.5255,-82.0032,2.33,7.36,1111122 
SCCF RECON,ioos:station:SCCF:13:1,2015-03-01T14:00:00Z,26.5255,-82.0032,2.39,6.74,1111122 
SCCF RECON,ioos:station:SCCF:13:1,2015-03-01T15:00:00Z,26.5255,-82.0032,2.462,7.07,1111122 
SCCF RECON,ioos:station:SCCF:13:1,2015-03-01T16:00:00Z,26.5255,-82.0032,2.531,7.09,1111122 
SCCF RECON,ioos:station:SCCF:13:1,2015-03-01T17:00:00Z,26.5255,-82.0032,2.561,7.28,1111122 
SCCF RECON,ioos:station:SCCF:13:1,2015-03-01T18:00:00Z,26.5255,-82.0032,2.54,7.46,1111122 
SCCF RECON,ioos:station:SCCF:13:1,2015-03-01T19:00:00Z,26.5255,-82.0032,2.494,7.58,1111122 
SCCF RECON,ioos:station:SCCF:13:1,2015-03-01T20:00:00Z,26.5255,-82.0032,2.455,7.61,1111122 
SCCF RECON,ioos:station:SCCF:13:1,2015-03-01T21:00:00Z,26.5255,-82.0032,2.421,7.39,1111122 
SCCF RECON,ioos:station:SCCF:13:1,2015-03-01T22:00:00Z,26.5255,-82.0032,2.4,7.5,1111122 
SCCF RECON,ioos:station:SCCF:13:1,2015-03-01T23:00:00Z,26.5255,-82.0032,2.43,7.4,1111122 
SCCF RECON,ioos:station:SCCF:13:1,2015-03-02T00:00:00Z,26.5255,-82.0032,2.54,7.0,1111122 
SCCF RECON,ioos:station:SCCF:13:1,2015-03-02T01:00:00Z,26.5255,-82.0032,2.61,7.45,1111122 
SCCF RECON,ioos:station:SCCF:13:1,2015-03-02T02:00:00Z,26.5255,-82.0032,2.64,7.6,1111122 
SCCF RECON,ioos:station:SCCF:13:1,2015-03-02T03:00:00Z,26.5255,-82.0032,2.67,7.64,1111122 
SCCF RECON,ioos:station:SCCF:13:1,2015-03-02T04:00:00Z,26.5255,-82.0032,2.69,7.37,1111122 
SCCF RECON,ioos:station:SCCF:13:1,2015-03-02T05:00:00Z,26.5255,-82.0032,2.66,7.28,1111122 
SCCF RECON,ioos:station:SCCF:13:1,2015-03-02T06:00:00Z,26.5255,-82.0032,2.58,7.28,1111122 
SCCF RECON,ioos:station:SCCF:13:1,2015-03-02T07:00:00Z,26.5255,-82.0032,2.47,7.05,1111122 
SCCF RECON,ioos:station:SCCF:13:1,2015-03-02T08:00:00Z,26.5255,-82.0032,2.37,7.1,1111122 
SCCF RECON,ioos:station:SCCF:13:1,2015-03-02T09:00:00Z,26.5255,-82.0032,2.293,7.08,1111122 
SCCF RECON,ioos:station:SCCF:13:1,2015-03-02T10:00:00Z,26.5255,-82.0032,2.217,7.17,1111122 
SCCF RECON,ioos:station:SCCF:13:1,2015-03-02T11:00:00Z,26.5255,-82.0032,2.16,7.1,1111122 
SCCF RECON,ioos:station:SCCF:13:1,2015-03-02T12:00:00Z,26.5255,-82.0032,2.17,7.04,1111122 
SCCF RECON,ioos:station:SCCF:13:1,2015-03-02T13:00:00Z,26.5255,-82.0032,2.28,7.11,1111122 
SCCF RECON,ioos:station:SCCF:13:1,2015-03-02T14:00:00Z,26.5255,-82.0032,2.379,7.1,1111122 
SCCF RECON,ioos:station:SCCF:13:1,2015-03-02T15:00:00Z,26.5255,-82.0032,2.44,6.61,1111122 
SCCF RECON,ioos:station:SCCF:13:1,2015-03-02T16:00:00Z,26.5255,-82.0032,2.499,6.95,1111122 
SCCF RECON,ioos:station:SCCF:13:1,2015-03-02T17:00:00Z,26.5255,-82.0032,2.53,7.09,1111122 
SCCF RECON,ioos:station:SCCF:13:1,2015-03-02T18:00:00Z,26.5255,-82.0032,2.521,7.22,1111122 
SCCF RECON,ioos:station:SCCF:13:1,2015-03-02T19:00:00Z,26.5255,-82.0032,2.472,7.33,1111122 
SCCF RECON,ioos:station:SCCF:13:1,2015-03-02T20:00:00Z,26.5255,-82.0032,2.415,7.23,1111122 
SCCF RECON,ioos:station:SCCF:13:1,2015-03-02T21:00:00Z,26.5255,-82.0032,2.361,7.61,1111122 
SCCF RECON,ioos:station:SCCF:13:1,2015-03-02T22:00:00Z,26.5255,-82.0032,2.32,7.33,1111122 
SCCF RECON,ioos:station:SCCF:13:1,2015-03-02T23:00:00Z,26.5255,-82.0032,2.32,7.16,1111122 
SCCF RECON,ioos:station:SCCF:13:1,2015-03-03T00:00:00Z,26.5255,-82.0032,2.368,7.15,1111122 
SCCF RECON,ioos:station:SCCF:13:1,2015-03-03T01:00:00Z,26.5255,-82.0032,2.45,6.89,1111122 
SCCF RECON,ioos:station:SCCF:13:1,2015-03-03T02:00:00Z,26.5255,-82.0032,2.53,7.1,1111122 
SCCF RECON,ioos:station:SCCF:13:1,2015-03-03T03:00:00Z,26.5255,-82.0032,2.6,7.31,1111122 
SCCF RECON,ioos:station:SCCF:13:1,2015-03-03T04:00:00Z,26.5255,-82.0032,2.649,7.33,1111122 
SCCF RECON,ioos:station:SCCF:13:1,2015-03-03T05:00:00Z,26.5255,-82.0032,2.66,7.29,1111122 
SCCF RECON,ioos:station:SCCF:13:1,2015-03-03T06:00:00Z,26.5255,-82.0032,2.61,7.27,1111122 
SCCF RECON,ioos:station:SCCF:13:1,2015-03-03T07:00:00Z,26.5255,-82.0032,2.51,7.14,1111122 
SCCF RECON,ioos:station:SCCF:13:1,2015-03-03T08:00:00Z,26.5255,-82.0032,2.39,6.91,1111122 
SCCF RECON,ioos:station:SCCF:13:1,2015-03-03T09:00:00Z,26.5255,-82.0032,2.304,6.78,1111122 
SCCF RECON,ioos:station:SCCF:13:1,2015-03-03T10:00:00Z,26.5255,-82.0032,2.23,6.77,1111122 
SCCF RECON,ioos:station:SCCF:13:1,2015-03-03T11:00:00Z,26.5255,-82.0032,2.162,6.84,1111122 
SCCF RECON,ioos:station:SCCF:13:1,2015-03-03T12:00:00Z,26.5255,-82.0032,2.13,6.83,1111122 
SCCF RECON,ioos:station:SCCF:13:1,2015-03-03T13:00:00Z,26.5255,-82.0032,2.194,6.85,1111122 
SCCF RECON,ioos:station:SCCF:13:1,2015-03-03T14:00:00Z,26.5255,-82.0032,2.33,7.03,1111122 
SCCF RECON,ioos:station:SCCF:13:1,2015-03-03T15:00:00Z,26.5255,-82.0032,2.42,6.61,1111122 
SCCF RECON,ioos:station:SCCF:13:1,2015-03-03T16:00:00Z,26.5255,-82.0032,2.48,6.64,1111122 
SCCF RECON,ioos:station:SCCF:13:1,2015-03-03T17:00:00Z,26.5255,-82.0032,2.522,6.93,1111122 
SCCF RECON,ioos:station:SCCF:13:1,2015-03-03T18:00:00Z,26.5255,-82.0032,2.549,7.21,1111122 
SCCF RECON,ioos:station:SCCF:13:1,2015-03-03T19:00:00Z,26.5255,-82.0032,2.51,7.42,1111122 
SCCF RECON,ioos:station:SCCF:13:1,2015-03-03T20:00:00Z,26.5255,-82.0032,2.431,7.52,1111122 
SCCF RECON,ioos:station:SCCF:13:1,2015-03-03T21:00:00Z,26.5255,-82.0032,2.37,7.25,1111122 
SCCF RECON,ioos:station:SCCF:13:1,2015-03-03T22:00:00Z,26.5255,-82.0032,2.31,7.29,1111122 
SCCF RECON,ioos:station:SCCF:13:1,2015-03-03T23:00:00Z,26.5255,-82.0032,2.29,7.35,1111122 
SCCF RECON,ioos:station:SCCF:13:1,2015-03-04T00:00:00Z,26.5255,-82.0032,2.3,7.43,1111122 
SCCF RECON,ioos:station:SCCF:13:1,2015-03-04T01:00:00Z,26.5255,-82.0032,2.39,7.19,1111122 
SCCF RECON,ioos:station:SCCF:13:1,2015-03-04T02:00:00Z,26.5255,-82.0032,2.498,6.75,1111122 
SCCF RECON,ioos:station:SCCF:13:1,2015-03-04T03:00:00Z,26.5255,-82.0032,2.58,7.34,1111122 
SCCF RECON,ioos:station:SCCF:13:1,2015-03-04T04:00:00Z,26.5255,-82.0032,2.621,7.31,1111122 
SCCF RECON,ioos:station:SCCF:13:1,2015-03-04T05:00:00Z,26.5255,-82.0032,2.66,7.16,1111122 
SCCF RECON,ioos:station:SCCF:13:1,2015-03-04T06:00:00Z,26.5255,-82.0032,2.66,7.19,1111122 
SCCF RECON,ioos:station:SCCF:13:1,2015-03-04T07:00:00Z,26.5255,-82.0032,2.57,7.04,1111122 
SCCF RECON,ioos:station:SCCF:13:1,2015-03-04T08:00:00Z,26.5255,-82.0032,2.47,6.93,1111122 
SCCF RECON,ioos:station:SCCF:13:1,2015-03-04T09:00:00Z,26.5255,-82.0032,2.361,6.73,1111122 
SCCF RECON,ioos:station:SCCF:13:1,2015-03-04T10:00:00Z,26.5255,-82.0032,2.28,6.76,1111122 
SCCF RECON,ioos:station:SCCF:13:1,2015-03-04T11:00:00Z,26.5255,-82.0032,2.21,6.73,1111122 
SCCF RECON,ioos:station:SCCF:13:1,2015-03-04T12:00:00Z,26.5255,-82.0032,2.156,6.75,1111122 
SCCF RECON,ioos:station:SCCF:13:1,2015-03-04T13:00:00Z,26.5255,-82.0032,2.161,6.75,1111122 
SCCF RECON,ioos:station:SCCF:13:1,2015-03-04T14:00:00Z,26.5255,-82.0032,2.3,6.84,1111122 
SCCF RECON,ioos:station:SCCF:13:1,2015-03-04T15:00:00Z,26.5255,-82.0032,2.42,6.62,1111122 
SCCF RECON,ioos:station:SCCF:13:1,2015-03-04T16:00:00Z,26.5255,-82.0032,2.48,6.65,1111122 
SCCF RECON,ioos:station:SCCF:13:1,2015-03-04T17:00:00Z,26.5255,-82.0032,2.53,6.78,1111122 
SCCF RECON,ioos:station:SCCF:13:1,2015-03-04T18:00:00Z,26.5255,-82.0032,2.562,7.15,1111122 
SCCF RECON,ioos:station:SCCF:13:1,2015-03-04T19:00:00Z,26.5255,-82.0032,2.555,7.29,1111122 
SCCF RECON,ioos:station:SCCF:13:1,2015-03-04T20:00:00Z,26.5255,-82.0032,2.5,7.58,1111122 
SCCF RECON,ioos:station:SCCF:13:1,2015-03-04T21:00:00Z,26.5255,-82.0032,2.44,7.56,1111122 
SCCF RECON,ioos:station:SCCF:13:1,2015-03-04T22:00:00Z,26.5255,-82.0032,2.37,7.54,1111122 
SCCF RECON,ioos:station:SCCF:13:1,2015-03-04T23:00:00Z,26.5255,-82.0032,2.3,7.28,1111122 
SCCF RECON,ioos:station:SCCF:13:1,2015-03-05T00:00:00Z,26.5255,-82.0032,2.261,7.37,1111122 
SCCF RECON,ioos:station:SCCF:13:1,2015-03-05T01:00:00Z,26.5255,-82.0032,2.3,7.16,1111122 
SCCF RECON,ioos:station:SCCF:13:1,2015-03-05T02:00:00Z,26.5255,-82.0032,2.43,7.14,1111122 
SCCF RECON,ioos:station:SCCF:13:1,2015-03-05T03:00:00Z,26.5255,-82.0032,2.53,6.61,1111122 
SCCF RECON,ioos:station:SCCF:13:1,2015-03-05T04:00:00Z,26.5255,-82.0032,2.6,7.13,1111122 
SCCF RECON,ioos:station:SCCF:13:1,2015-03-05T05:00:00Z,26.5255,-82.0032,2.65,7.12,1111122 
SCCF RECON,ioos:station:SCCF:13:1,2015-03-05T06:00:00Z,26.5255,-82.0032,2.67,6.95,1111122 
SCCF RECON,ioos:station:SCCF:13:1,2015-03-05T07:00:00Z,26.5255,-82.0032,2.64,6.97,1111122 
SCCF RECON,ioos:station:SCCF:13:1,2015-03-05T08:00:00Z,26.5255,-82.0032,2.55,6.87,1111122 
SCCF RECON,ioos:station:SCCF:13:1,2015-03-05T09:00:00Z,26.5255,-82.0032,2.43,6.6,1111122 
SCCF RECON,ioos:station:SCCF:13:1,2015-03-05T10:00:00Z,26.5255,-82.0032,2.34,6.55,1111122 
SCCF RECON,ioos:station:SCCF:13:1,2015-03-05T11:00:00Z,26.5255,-82.0032,2.28,6.52,1111122 
SCCF RECON,ioos:station:SCCF:13:1,2015-03-05T12:00:00Z,26.5255,-82.0032,2.212,6.51,1111122 
SCCF RECON,ioos:station:SCCF:13:1,2015-03-05T13:00:00Z,26.5255,-82.0032,2.19,6.61,1111122 
SCCF RECON,ioos:station:SCCF:13:1,2015-03-05T14:00:00Z,26.5255,-82.0032,2.29,6.76,1111122 
SCCF RECON,ioos:station:SCCF:13:1,2015-03-05T15:00:00Z,26.5255,-82.0032,2.426,6.71,1111122 
SCCF RECON,ioos:station:SCCF:13:1,2015-03-05T16:00:00Z,26.5255,-82.0032,2.5,6.42,1111122 
SCCF RECON,ioos:station:SCCF:13:1,2015-03-05T17:00:00Z,26.5255,-82.0032,2.56,6.61,1111122 
SCCF RECON,ioos:station:SCCF:13:1,2015-03-05T18:00:00Z,26.5255,-82.0032,2.6,6.99,1111122 
SCCF RECON,ioos:station:SCCF:13:1,2015-03-05T19:00:00Z,26.5255,-82.0032,2.6,7.21,1111122 
SCCF RECON,ioos:station:SCCF:13:1,2015-03-05T20:00:00Z,26.5255,-82.0032,2.54,7.36,1111122 
SCCF RECON,ioos:station:SCCF:13:1,2015-03-05T21:00:00Z,26.5255,-82.0032,2.442,7.3,1111122 
SCCF RECON,ioos:station:SCCF:13:1,2015-03-05T22:00:00Z,26.5255,-82.0032,2.35,7.16,1111122 
SCCF RECON,ioos:station:SCCF:13:1,2015-03-05T23:00:00Z,26.5255,-82.0032,2.284,7.26,1111122 
SCCF RECON,ioos:station:SCCF:13:1,2015-03-06T00:00:00Z,26.5255,-82.0032,2.22,7.15,1111122 
SCCF RECON,ioos:station:SCCF:13:1,2015-03-06T01:00:00Z,26.5255,-82.0032,2.19,7.1,1111122 
SCCF RECON,ioos:station:SCCF:13:1,2015-03-06T02:00:00Z,26.5255,-82.0032,2.249,7.17,1111122 
SCCF RECON,ioos:station:SCCF:13:1,2015-03-06T03:00:00Z,26.5255,-82.0032,2.38,7.17,1111122 
SCCF RECON,ioos:station:SCCF:13:1,2015-03-06T04:00:00Z,26.5255,-82.0032,2.478,6.34,1111122 
SCCF RECON,ioos:station:SCCF:13:1,2015-03-06T05:00:00Z,26.5255,-82.0032,2.52,6.68,1111122 
SCCF RECON,ioos:station:SCCF:13:1,2015-03-06T06:00:00Z,26.5255,-82.0032,2.55,6.82,1111122 
SCCF RECON,ioos:station:SCCF:13:1,2015-03-06T07:00:00Z,26.5255,-82.0032,2.56,6.71,1111122 
SCCF RECON,ioos:station:SCCF:13:1,2015-03-06T08:00:00Z,26.5255,-82.0032,2.5,6.69,1111122 
SCCF RECON,ioos:station:SCCF:13:1,2015-03-06T09:00:00Z,26.5255,-82.0032,2.39,6.51,1111122 
SCCF RECON,ioos:station:SCCF:13:1,2015-03-06T10:00:00Z,26.5255,-82.0032,2.3,6.24,1111122 
SCCF RECON,ioos:station:SCCF:13:1,2015-03-06T11:00:00Z,26.5255,-82.0032,2.24,6.24,1111122 
SCCF RECON,ioos:station:SCCF:13:1,2015-03-06T12:00:00Z,26.5255,-82.0032,2.19,6.32,1111122 
SCCF RECON,ioos:station:SCCF:13:1,2015-03-06T13:00:00Z,26.5255,-82.0032,2.14,6.44,1111122 
SCCF RECON,ioos:station:SCCF:13:1,2015-03-06T14:00:00Z,26.5255,-82.0032,2.17,6.6,1111122 
SCCF RECON,ioos:station:SCCF:13:1,2015-03-06T15:00:00Z,26.5255,-82.0032,2.324,6.67,1111122 
SCCF RECON,ioos:station:SCCF:13:1,2015-03-06T16:00:00Z,26.5255,-82.0032,2.44,6.07,1111122 
SCCF RECON,ioos:station:SCCF:13:1,2015-03-06T17:00:00Z,26.5255,-82.0032,2.53,6.07,1111122 
SCCF RECON,ioos:station:SCCF:13:1,2015-03-06T18:00:00Z,26.5255,-82.0032,2.59,6.59,1111122 
SCCF RECON,ioos:station:SCCF:13:1,2015-03-06T19:00:00Z,26.5255,-82.0032,2.62,6.95,1111122 
SCCF RECON,ioos:station:SCCF:13:1,2015-03-06T20:00:00Z,26.5255,-82.0032,2.59,7.17,1111122 
SCCF RECON,ioos:station:SCCF:13:1,2015-03-06T21:00:00Z,26.5255,-82.0032,2.48,7.14,1111122 
SCCF RECON,ioos:station:SCCF:13:1,2015-03-06T22:00:00Z,26.5255,-82.0032,2.399,7.11,1111122 
SCCF RECON,ioos:station:SCCF:13:1,2015-03-06T23:00:00Z,26.5255,-82.0032,2.33,6.91,1111122 
SCCF RECON,ioos:station:SCCF:13:1,2015-03-07T00:00:00Z,26.5255,-82.0032,2.28,6.77,1111122 
SCCF RECON,ioos:station:SCCF:13:1,2015-03-07T01:00:00Z,26.5255,-82.0032,2.22,6.83,1111122 
SCCF RECON,ioos:station:SCCF:13:1,2015-03-07T02:00:00Z,26.5255,-82.0032,2.2,6.86,1111122 
SCCF RECON,ioos:station:SCCF:13:1,2015-03-07T03:00:00Z,26.5255,-82.0032,2.26,6.9,1111122 
SCCF RECON,ioos:station:SCCF:13:1,2015-03-07T04:00:00Z,26.5255,-82.0032,2.38,6.99,1111122 
SCCF RECON,ioos:station:SCCF:13:1,2015-03-07T05:00:00Z,26.5255,-82.0032,2.446,6.44,1111122 
SCCF RECON,ioos:station:SCCF:13:1,2015-03-07T06:00:00Z,26.5255,-82.0032,2.48,6.11,1111122 
SCCF RECON,ioos:station:SCCF:13:1,2015-03-07T07:00:00Z,26.5255,-82.0032,2.47,6.29,1111122 
SCCF RECON,ioos:station:SCCF:13:1,2015-03-07T08:00:00Z,26.5255,-82.0032,2.44,6.33,1111122 
SCCF RECON,ioos:station:SCCF:13:1,2015-03-07T09:00:00Z,26.5255,-82.0032,2.37,6.34,1111122 
SCCF RECON,ioos:station:SCCF:13:1,2015-03-07T10:00:00Z,26.5255,-82.0032,2.265,6.16,1111122 
SCCF RECON,ioos:station:SCCF:13:1,2015-03-07T11:00:00Z,26.5255,-82.0032,2.186,6.1,1111122 
SCCF RECON,ioos:station:SCCF:13:1,2015-03-07T12:00:00Z,26.5255,-82.0032,2.12,6.52,1111122 
SCCF RECON,ioos:station:SCCF:13:1,2015-03-07T13:00:00Z,26.5255,-82.0032,2.06,6.69,1111122 
SCCF RECON,ioos:station:SCCF:13:1,2015-03-07T14:00:00Z,26.5255,-82.0032,2.02,6.87,1111122 
SCCF RECON,ioos:station:SCCF:13:1,2015-03-07T15:00:00Z,26.5255,-82.0032,2.089,6.99,1111122 
SCCF RECON,ioos:station:SCCF:13:1,2015-03-07T16:00:00Z,26.5255,-82.0032,2.253,7.12,1111122 
SCCF RECON,ioos:station:SCCF:13:1,2015-03-07T17:00:00Z,26.5255,-82.0032,2.34,7.0,1111122 
SCCF RECON,ioos:station:SCCF:13:1,2015-03-07T18:00:00Z,26.5255,-82.0032,2.401,6.38,1111122 
SCCF RECON,ioos:station:SCCF:13:1,2015-03-07T19:00:00Z,26.5255,-82.0032,2.449,6.85,1111122 
SCCF RECON,ioos:station:SCCF:13:1,2015-03-07T20:00:00Z,26.5255,-82.0032,2.45,7.13,1111122 
SCCF RECON,ioos:station:SCCF:13:1,2015-03-07T21:00:00Z,26.5255,-82.0032,2.4,7.14,1111122 
SCCF RECON,ioos:station:SCCF:13:1,2015-03-07T22:00:00Z,26.5255,-82.0032,2.31,6.87,1111122 
SCCF RECON,ioos:station:SCCF:13:1,2015-03-07T23:00:00Z,26.5255,-82.0032,2.24,7.02,1111122 
SCCF RECON,ioos:station:SCCF:13:1,2015-03-08T00:00:00Z,26.5255,-82.0032,2.18,7.02,1111122 
SCCF RECON,ioos:station:SCCF:13:1,2015-03-08T01:00:00Z,26.5255,-82.0032,2.127,7.27,1111122 
SCCF RECON,ioos:station:SCCF:13:1,2015-03-08T02:00:00Z,26.5255,-82.0032,2.11,7.23,1111122 
SCCF RECON,ioos:station:SCCF:13:1,2015-03-08T03:00:00Z,26.5255,-82.0032,2.18,7.21,1111122 
SCCF RECON,ioos:station:SCCF:13:1,2015-03-08T04:00:00Z,26.5255,-82.0032,2.31,7.04,1111122 
SCCF RECON,ioos:station:SCCF:13:1,2015-03-08T05:00:00Z,26.5255,-82.0032,2.4,6.6,1111122 
SCCF RECON,ioos:station:SCCF:13:1,2015-03-08T06:00:00Z,26.5255,-82.0032,2.47,6.8,1111122 
SCCF RECON,ioos:station:SCCF:13:1,2015-03-08T07:00:00Z,26.5255,-82.0032,2.51,6.67,1111122 
SCCF RECON,ioos:station:SCCF:13:1,2015-03-08T08:00:00Z,26.5255,-82.0032,2.51,6.66,1111122 
SCCF RECON,ioos:station:SCCF:13:1,2015-03-08T09:00:00Z,26.5255,-82.0032,2.46,6.6,1111122 
SCCF RECON,ioos:station:SCCF:13:1,2015-03-08T10:00:00Z,26.5255,-82.0032,2.37,6.45,1111122 
SCCF RECON,ioos:station:SCCF:13:1,2015-03-08T11:00:00Z,26.5255,-82.0032,2.285,6.21,1111122 
SCCF RECON,ioos:station:SCCF:13:1,2015-03-08T12:00:00Z,26.5255,-82.0032,2.22,6.5,1111122 
SCCF RECON,ioos:station:SCCF:13:1,2015-03-08T13:00:00Z,26.5255,-82.0032,2.17,6.67,1111122 
SCCF RECON,ioos:station:SCCF:13:1,2015-03-08T14:00:00Z,26.5255,-82.0032,2.139,6.82,1111122 
SCCF RECON,ioos:station:SCCF:13:1,2015-03-08T15:00:00Z,26.5255,-82.0032,2.183,7.07,1111122 
SCCF RECON,ioos:station:SCCF:13:1,2015-03-08T16:00:00Z,26.5255,-82.0032,2.31,7.23,1111122 
SCCF RECON,ioos:station:SCCF:13:1,2015-03-08T17:00:00Z,26.5255,-82.0032,2.416,6.32,1111122 
SCCF RECON,ioos:station:SCCF:13:1,2015-03-08T18:00:00Z,26.5255,-82.0032,2.48,6.55,1111122 
SCCF RECON,ioos:station:SCCF:13:1,2015-03-08T19:00:00Z,26.5255,-82.0032,2.52,7.11,1111122 
SCCF RECON,ioos:station:SCCF:13:1,2015-03-08T20:00:00Z,26.5255,-82.0032,2.54,7.26,1111122 
SCCF RECON,ioos:station:SCCF:13:1,2015-03-08T21:00:00Z,26.5255,-82.0032,2.51,7.12,1111122 
SCCF RECON,ioos:station:SCCF:13:1,2015-03-08T22:00:00Z,26.5255,-82.0032,2.44,6.99,1111122 
SCCF RECON,ioos:station:SCCF:13:1,2015-03-08T23:00:00Z,26.5255,-82.0032,2.34,6.92,1111122 
SCCF RECON,ioos:station:SCCF:13:1,2015-03-09T00:00:00Z,26.5255,-82.0032,2.26,6.99,1111122 
SCCF RECON,ioos:station:SCCF:13:1,2015-03-09T01:00:00Z,26.5255,-82.0032,2.19,7.28,1111122 
SCCF RECON,ioos:station:SCCF:13:1,2015-03-09T02:00:00Z,26.5255,-82.0032,2.14,7.13,1111122 
SCCF RECON,ioos:station:SCCF:13:1,2015-03-09T03:00:00Z,26.5255,-82.0032,2.11,7.09,1111122 
SCCF RECON,ioos:station:SCCF:13:1,2015-03-09T04:00:00Z,26.5255,-82.0032,2.2,7.13,1111122 
SCCF RECON,ioos:station:SCCF:13:1,2015-03-09T05:00:00Z,26.5255,-82.0032,2.31,6.95,1111122 
SCCF RECON,ioos:station:SCCF:13:1,2015-03-09T06:00:00Z,26.5255,-82.0032,2.39,6.41,1111122 
SCCF RECON,ioos:station:SCCF:13:1,2015-03-09T07:00:00Z,26.5255,-82.0032,2.44,6.54,1111122 
SCCF RECON,ioos:station:SCCF:13:1,2015-03-09T08:00:00Z,26.5255,-82.0032,2.462,6.55,1111122 
SCCF RECON,ioos:station:SCCF:13:1,2015-03-09T09:00:00Z,26.5255,-82.0032,2.46,6.54,1111122 
SCCF RECON,ioos:station:SCCF:13:1,2015-03-09T10:00:00Z,26.5255,-82.0032,2.424,6.52,1111122 
SCCF RECON,ioos:station:SCCF:13:1,2015-03-09T11:00:00Z,26.5255,-82.0032,2.359,6.37,1111122 
SCCF RECON,ioos:station:SCCF:13:1,2015-03-09T12:00:00Z,26.5255,-82.0032,2.29,6.15,1111122 
SCCF RECON,ioos:station:SCCF:13:1,2015-03-09T13:00:00Z,26.5255,-82.0032,2.25,6.51,1111122 
SCCF RECON,ioos:station:SCCF:13:1,2015-03-09T14:00:00Z,26.5255,-82.0032,2.22,6.86,1111122 
SCCF RECON,ioos:station:SCCF:13:1,2015-03-09T15:00:00Z,26.5255,-82.0032,2.26,7.0,1111122 
SCCF RECON,ioos:station:SCCF:13:1,2015-03-09T16:00:00Z,26.5255,-82.0032,2.378,6.93,1111122 
SCCF RECON,ioos:station:SCCF:13:1,2015-03-09T17:00:00Z,26.5255,-82.0032,2.47,6.36,1111122 
SCCF RECON,ioos:station:SCCF:13:1,2015-03-09T18:00:00Z,26.5255,-82.0032,2.55,6.73,1111122 
SCCF RECON,ioos:station:SCCF:13:1,2015-03-09T19:00:00Z,26.5255,-82.0032,2.61,7.1,1111122 
SCCF RECON,ioos:station:SCCF:13:1,2015-03-09T20:00:00Z,26.5255,-82.0032,2.63,7.19,1111122 
SCCF RECON,ioos:station:SCCF:13:1,2015-03-09T21:00:00Z,26.5255,-82.0032,2.64,7.44,1111122 
SCCF RECON,ioos:station:SCCF:13:1,2015-03-09T22:00:00Z,26.5255,-82.0032,2.6,7.62,1111122 
SCCF RECON,ioos:station:SCCF:13:1,2015-03-09T23:00:00Z,26.5255,-82.0032,2.51,7.44,1111122 
SCCF RECON,ioos:station:SCCF:13:1,2015-03-10T00:00:00Z,26.5255,-82.0032,2.417,7.31,1111122 
SCCF RECON,ioos:station:SCCF:13:1,2015-03-10T01:00:00Z,26.5255,-82.0032,2.35,6.96,1111122 
SCCF RECON,ioos:station:SCCF:13:1,2015-03-10T03:00:00Z,26.5255,-82.0032,2.25,7.22,1111122 
SCCF RECON,ioos:station:SCCF:13:1,2015-03-10T04:00:00Z,26.5255,-82.0032,2.23,7.14,1111122 
SCCF RECON,ioos:station:SCCF:13:1,2015-03-10T07:00:00Z,26.5255,-82.0032,2.49,6.41,1111122 
SCCF RECON,ioos:station:SCCF:13:1,2015-03-10T11:00:00Z,26.5255,-82.0032,2.46,6.56,1111122 
SCCF RECON,ioos:station:SCCF:13:1,2015-03-10T12:00:00Z,26.5255,-82.0032,2.41,6.45,1111122 
SCCF RECON,ioos:station:SCCF:13:1,2015-03-10T13:00:00Z,26.5255,-82.0032,2.36,6.05,1111122 
SCCF RECON,ioos:station:SCCF:13:1,2015-03-10T14:00:00Z,26.5255,-82.0032,2.32,6.57,1111122 
SCCF RECON,ioos:station:SCCF:13:1,2015-03-10T15:00:00Z,26.5255,-82.0032,2.31,6.77,1111122 
SCCF RECON,ioos:station:SCCF:13:1,2015-03-10T16:00:00Z,26.5255,-82.0032,2.361,7.05,1111122 
SCCF RECON,ioos:station:SCCF:13:1,2015-03-10T19:00:00Z,26.5255,-82.0032,2.6,6.99,1111122 
SCCF RECON,ioos:station:SCCF:13:1,2015-03-10T20:00:00Z,26.5255,-82.0032,2.66,7.49,1111122 
SCCF RECON,ioos:station:SCCF:13:1,2015-03-10T21:00:00Z,26.5255,-82.0032,2.68,7.47,1111122 
SCCF RECON,ioos:station:SCCF:13:1,2015-03-10T22:00:00Z,26.5255,-82.0032,2.66,7.44,1111122 
SCCF RECON,ioos:station:SCCF:13:1,2015-03-10T23:00:00Z,26.5255,-82.0032,2.59,7.42,1111122 
SCCF RECON,ioos:station:SCCF:13:1,2015-03-11T02:00:00Z,26.5255,-82.0032,2.35,7.01,1111122 
SCCF RECON,ioos:station:SCCF:13:1,2015-03-11T03:00:00Z,26.5255,-82.0032,2.29,7.16,1111122 
SCCF RECON,ioos:station:SCCF:13:1,2015-03-11T04:00:00Z,26.5255,-82.0032,2.24,7.08,1111122 
SCCF RECON,ioos:station:SCCF:13:1,2015-03-11T05:00:00Z,26.5255,-82.0032,2.28,7.0,1111122 
SCCF RECON,ioos:station:SCCF:13:1,2015-03-11T06:00:00Z,26.5255,-82.0032,2.36,6.94,1111122 
SCCF RECON,ioos:station:SCCF:13:1,2015-03-11T07:00:00Z,26.5255,-82.0032,2.41,6.79,1111122 
SCCF RECON,ioos:station:SCCF:13:1,2015-03-11T08:00:00Z,26.5255,-82.0032,2.45,6.33,1111122 
SCCF RECON,ioos:station:SCCF:13:1,2015-03-11T09:00:00Z,26.5255,-82.0032,2.49,6.39,1111122 
SCCF RECON,ioos:station:SCCF:13:1,2015-03-11T10:00:00Z,26.5255,-82.0032,2.51,6.52,1111122 
SCCF RECON,ioos:station:SCCF:13:1,2015-03-11T11:00:00Z,26.5255,-82.0032,2.503,6.44,1111122 
SCCF RECON,ioos:station:SCCF:13:1,2015-03-11T12:00:00Z,26.5255,-82.0032,2.47,6.17,1111122 
SCCF RECON,ioos:station:SCCF:13:1,2015-03-11T13:00:00Z,26.5255,-82.0032,2.42,6.18,1111122 
SCCF RECON,ioos:station:SCCF:13:1,2015-03-11T14:00:00Z,26.5255,-82.0032,2.36,6.06,1111122 
SCCF RECON,ioos:station:SCCF:13:1,2015-03-11T15:00:00Z,26.5255,-82.0032,2.33,6.62,1111122 
SCCF RECON,ioos:station:SCCF:13:1,2015-03-11T16:00:00Z,26.5255,-82.0032,2.36,6.74,1111122 
SCCF RECON,ioos:station:SCCF:13:1,2015-03-11T17:00:00Z,26.5255,-82.0032,2.43,6.59,1111122 
SCCF RECON,ioos:station:SCCF:13:1,2015-03-11T18:00:00Z,26.5255,-82.0032,2.511,6.72,1111122 
SCCF RECON,ioos:station:SCCF:13:1,2015-03-11T19:00:00Z,26.5255,-82.0032,2.56,7.09,1111122 
SCCF RECON,ioos:station:SCCF:13:1,2015-03-11T20:00:00Z,26.5255,-82.0032,2.61,7.09,1111122 
SCCF RECON,ioos:station:SCCF:13:1,2015-03-11T21:00:00Z,26.5255,-82.0032,2.64,7.28,1111122 
SCCF RECON,ioos:station:SCCF:13:1,2015-03-11T22:00:00Z,26.5255,-82.0032,2.67,7.17,1111122 
SCCF RECON,ioos:station:SCCF:13:1,2015-03-11T23:00:00Z,26.5255,-82.0032,2.65,7.08,1111122 
SCCF RECON,ioos:station:SCCF:13:1,2015-03-12T00:00:00Z,26.5255,-82.0032,2.56,6.89,1111122 
SCCF RECON,ioos:station:SCCF:13:1,2015-03-12T01:00:00Z,26.5255,-82.0032,2.46,6.67,1111122 
SCCF RECON,ioos:station:SCCF:13:1,2015-03-12T02:00:00Z,26.5255,-82.0032,2.388,6.7,1111122 
SCCF RECON,ioos:station:SCCF:13:1,2015-03-12T03:00:00Z,26.5255,-82.0032,2.322,6.85,1111122 
SCCF RECON,ioos:station:SCCF:13:1,2015-03-12T04:00:00Z,26.5255,-82.0032,2.26,6.92,1111122 
SCCF RECON,ioos:station:SCCF:13:1,2015-03-12T05:00:00Z,26.5255,-82.0032,2.23,6.82,1111122 
SCCF RECON,ioos:station:SCCF:13:1,2015-03-12T06:00:00Z,26.5255,-82.0032,2.24,6.75,1111122 
SCCF RECON,ioos:station:SCCF:13:1,2015-03-12T07:00:00Z,26.5255,-82.0032,2.29,6.7,1111122 